Regional Weather Roundup
Issued by NWS Midland/Odessa, TX

Home | Current Version | Previous Version | Text Only | Print | Product List | Glossary On
Versions: 1 2 3 4 5 6 7 8 9 10 11 12 13 14 15 16 17 18 19 20 21 22 23 24 25 26 27 28 29 30 31 32 33 34 35 36 37 38 39 40 41 42 43 44 45 46 47 48 49 50
000
ASUS44 KMAF 281210
RWRMAF
MIDLAND AREA WEATHER ROUNDUP
NATIONAL WEATHER SERVICE MIDLAND TX
700 AM CDT MON JUL 28 2014

...IN SOUTHWEST TEXAS AND SOUTHEAST NEW MEXICO...

CITY           SKY/WX    TMP DP  RH WIND       PRES   REMARKS
ALPINE         PTCLDY    72  54  53 W3        30.29S
ANDREWS        FAIR      73  56  56 CALM      30.19S
ARTESIA        MOCLDY    77  57  50 NW17G23   30.26R
BIG SPRING     CLEAR     79  61  53 SE7       30.19R
CARLSBAD       PTCLDY    78  56  46 N6        30.20R
DRYDEN           N/A     81  66  60 E8        30.10R
FORT STOCKTON  CLEAR     75  61  61 S8        30.16R
GUAD PASS      LGT RAIN  67  58  72 NE18        N/A
HOBBS          CLEAR     73  55  53 CALM      30.23
MARFA          PTCLDY    66  55  68 CALM      30.29R
MIDLAND AIRPK  PTCLDY    78  59  51 SE3       30.18R
MIDLAND INTL   CLEAR     76  58  53 SE3       30.17R
ODESSA         CLEAR     78  59  51 S7        30.18R
PECOS          CLEAR     75  58  54 E5        30.12R
PRESIDIO       FAIR      83  57  40 NE9       30.11R
SEMINOLE       PTCLDY    72  55  55 CALM      30.22R
SNYDER         MOCLDY    76  59  56 S3        30.17R
WINK           PTCLDY    79  59  50 SE8       30.14R
$$
...OTHER STATIONS IN TEXAS...

CITY           SKY/WX    TMP DP  RH WIND       PRES   REMARKS
ABILENE        CLEAR     77  64  64 SE9       30.12R
AMARILLO       LGT RAIN  63  61  93 N16G28    30.36S
AUSTIN         CLOUDY    74  72  93 SW7       30.10R
BROWNSVILLE    PTCLDY    79  77  94 SE5       30.06R
CORPUS CHRISTI PTCLDY    77  75  93 SE6       30.07R
DALLAS FTW     PTCLDY    82  72  71 N10       30.09R
DEL RIO        CLEAR     79  69  71 E7        30.06R
EL PASO        CLOUDY    75  59  57 N12       30.23R
HOUSTON INT    PTCLDY    78  76  93 CALM      30.09R
LUBBOCK        MOCLDY    69  59  70 CALM      30.22R
SAN ANGELO     CLEAR     75  67  76 S5        30.12R
SAN ANTONIO    MOCLDY    78  72  81 S10       30.12R
WACO           CLEAR     76  69  79 S10       30.07S
WICHITA FALLS  NOT AVBL
$$
...OTHER LOCATIONS IN NEW MEXICO...

CITY           SKY/WX    TMP DP  RH WIND       PRES   REMARKS
ALAMAGORDO     CLOUDY    68  66  94 SE6       30.27R
ALBUQUERQUE    CLOUDY    69  55  60 N5        30.36S
CANNON AFB     MOCLDY    65  57  74 NE18      30.34R
CLOVIS         NOT AVBL
HOLLOMAN AFB   CLOUDY    68  64  88 NE2       30.24R
ROSWELL        MOCLDY    76  60  57 NW9       30.25R
RUIDOSO        CLOUDY    57  54  88 SW14      30.53R THUNDER FOG
SANTA FE       MOCLDY    60  56  86 NE8       30.44R
TRUTH OR CONSE MOCLDY    69  60  73 SE3       30.29R
TUCUMCARI      CLOUDY    67  57  70 NE15      30.34R
$$



USA.gov is the U.S. government's official web portal to all federal, state and local government web resources and services.